{"data":{"norad_id":81011,"intl_designator":"","name":"UNKNOWN","alt_names":[],"object_type":"UNKNOWN","status":"UNKNOWN","operator":null,"country":null,"launch_date":null,"launch_site_code":null,"launch_vehicle":null,"mission":null,"orbit_class":"UNKNOWN","rcs_meters":null,"size_class":null,"mass_kg":null,"dimensions":null,"purposes":[],"wikipedia_slug":null,"has_3d_model":false,"image_url":null,"decayed_at":null,"tle_current":{"epoch":"2026-05-24T23:39:15.413184Z","epoch_age_seconds":77088,"freshness":"FRESH","line1":"1 81011U          26144.98559506  .00002464  00000+0  13533-2 0  9997","line2":"2 81011  99.3617 165.8363 0135534  59.0874  16.2208 14.08142924  6486","mean_motion":14.08142924,"eccentricity":0.0135534,"inclination_deg":99.3617,"raan_deg":165.8363,"arg_perigee_deg":59.0874,"mean_anomaly_deg":16.2208,"bstar":0.0013533,"rev_number":648,"period_min":102.26234677298,"perigee_km":767.55451551403,"apogee_km":963.91266685515,"semimajor_km":7243.8705911846,"source":"CELESTRAK","updated_at":"2026-05-25T13:38:09.440952Z"}}}